Location: Breckenridge
(39.4820°N, 106.0380°W)
Time: 14:00:15
(UTC-06:00)

Hubble Space Telescope - Pass Details

Date: 27 March 2019
Orbit: 536 x 540 km, 28.5° (Epoch: 21 October)

Event Time Altitude Azimuth Distance (km) Brightness Sun altitude
Rises 21:40:48 0° 246° (WSW) 2,668 4.8 -26.2°
Reaches altitude 10° 21:43:40 10° 226° (SW) 1,778 3.6 -26.7°
Enters shadow 21:43:55 11° 223° (SW) 1,716 3.5 -26.7°
